Tracking 29892 objects as of 21-Nov-2024
HD Live streaming from Space Station
objects crossing your sky now

STARLINK-2305

Track STARLINK-2305 now!
10-day predictions
STARLINK-2305 is classified as:


NORAD ID: 47989
Int'l Code: 2021-024N
Perigee: 496.6 km
Apogee: 498.1 km
Inclination: 53.1 °
Period: 94.4 minutes
Semi major axis: 6868 km
RCS: Unknown
Launch date: March 24, 2021
Source: United States (US)
Launch site: AIR FORCE EASTERN TEST RANGE (AFETR)
Your satellite tracking list
Your tracking list is empty




NASA's NSSDC Master Catalog

Two Line Element Set (TLE):
1 47989U 21024N   24326.25001157  .00425981  00000-0  15818-1 0  9997
2 47989  53.0541 210.1151 0001088 107.6061 306.7026 15.25188738203968
Source of the keplerian elements: AFSPC